Year,Month,Day,Hour,Minute,Value (Times are PST for temperature in C)
2019,05,04,00,00,9.70
2019,05,04,00,01,9.70
2019,05,04,00,02,9.70
2019,05,04,00,03,9.70
2019,05,04,00,04,9.70
2019,05,04,00,05,9.70
2019,05,04,00,06,9.70
2019,05,04,00,07,9.70
2019,05,04,00,08,9.70
2019,05,04,00,09,9.60
2019,05,04,00,10,9.60
2019,05,04,00,11,9.60
2019,05,04,00,12,9.60
2019,05,04,00,13,9.60
2019,05,04,00,14,9.60
2019,05,04,00,15,9.60
2019,05,04,00,16,9.60
2019,05,04,00,17,9.60
2019,05,04,00,18,9.60
2019,05,04,00,19,9.60
2019,05,04,00,20,9.60
2019,05,04,00,21,9.50
2019,05,04,00,22,9.50
2019,05,04,00,23,9.50
2019,05,04,00,24,9.50
2019,05,04,00,25,9.50
2019,05,04,00,26,9.50
2019,05,04,00,27,9.50
2019,05,04,00,28,9.40
2019,05,04,00,29,9.40
2019,05,04,00,30,9.40
2019,05,04,00,31,9.40
2019,05,04,00,32,9.40
2019,05,04,00,33,9.40
2019,05,04,00,34,9.40
2019,05,04,00,35,9.40
2019,05,04,00,36,9.40
2019,05,04,00,37,9.40
2019,05,04,00,38,9.40
2019,05,04,00,39,9.40
2019,05,04,00,40,9.40
2019,05,04,00,41,9.40
2019,05,04,00,42,9.40
2019,05,04,00,43,9.50
2019,05,04,00,44,9.50
2019,05,04,00,45,9.50
2019,05,04,00,46,9.50
2019,05,04,00,47,9.50
2019,05,04,00,48,9.50
2019,05,04,00,49,9.50
2019,05,04,00,50,9.50
2019,05,04,00,51,9.50
2019,05,04,00,52,9.50
2019,05,04,00,53,9.50
2019,05,04,00,54,9.50
2019,05,04,00,55,9.50
2019,05,04,00,56,9.50
2019,05,04,00,57,9.50
2019,05,04,00,58,9.50
2019,05,04,00,59,9.50
2019,05,04,01,00,9.50
2019,05,04,01,01,9.50
2019,05,04,01,02,9.50
2019,05,04,01,03,9.50
2019,05,04,01,04,9.60
2019,05,04,01,05,9.60
2019,05,04,01,06,9.60
2019,05,04,01,07,9.50
2019,05,04,01,08,9.50
2019,05,04,01,09,9.50
2019,05,04,01,10,9.50
2019,05,04,01,11,9.50
2019,05,04,01,12,9.50
2019,05,04,01,13,9.40
2019,05,04,01,14,9.40
2019,05,04,01,15,9.40
2019,05,04,01,16,9.40
2019,05,04,01,17,9.40
2019,05,04,01,18,9.40
2019,05,04,01,19,9.30
2019,05,04,01,20,9.30
2019,05,04,01,21,9.20
2019,05,04,01,22,9.20
2019,05,04,01,23,9.20
2019,05,04,01,24,9.20
2019,05,04,01,25,9.20
2019,05,04,01,26,9.20
2019,05,04,01,27,9.20
2019,05,04,01,28,9.20
2019,05,04,01,29,9.10
2019,05,04,01,30,9.10
2019,05,04,01,31,9.10
2019,05,04,01,32,9.00
2019,05,04,01,33,9.00
2019,05,04,01,34,8.90
2019,05,04,01,35,8.90
2019,05,04,01,36,8.90
2019,05,04,01,37,8.80
2019,05,04,01,38,8.80
2019,05,04,01,39,8.80
2019,05,04,01,40,8.70
2019,05,04,01,41,8.70
2019,05,04,01,42,8.70
2019,05,04,01,43,8.70
2019,05,04,01,44,8.60
2019,05,04,01,45,8.60
2019,05,04,01,46,8.50
2019,05,04,01,47,8.50
2019,05,04,01,48,8.40
2019,05,04,01,49,8.40
2019,05,04,01,50,8.30
2019,05,04,01,51,8.30
2019,05,04,01,52,8.30
2019,05,04,01,53,8.30
2019,05,04,01,54,8.30
2019,05,04,01,55,8.30
2019,05,04,01,56,8.20
2019,05,04,01,57,8.20
2019,05,04,01,58,8.20
2019,05,04,01,59,8.20
2019,05,04,02,00,8.10
2019,05,04,02,01,8.10
2019,05,04,02,02,8.10
2019,05,04,02,03,8.10
2019,05,04,02,04,8.00
2019,05,04,02,05,8.00
2019,05,04,02,06,8.00
2019,05,04,02,07,7.90
2019,05,04,02,08,7.90
2019,05,04,02,09,7.90
2019,05,04,02,10,7.90
2019,05,04,02,11,7.90
2019,05,04,02,12,7.90
2019,05,04,02,13,7.90
2019,05,04,02,14,7.90
2019,05,04,02,15,7.90
2019,05,04,02,16,7.90
2019,05,04,02,17,7.80
2019,05,04,02,18,7.80
2019,05,04,02,19,7.80
2019,05,04,02,20,7.80
2019,05,04,02,21,7.80
2019,05,04,02,22,7.80
2019,05,04,02,23,7.70
2019,05,04,02,24,7.70
2019,05,04,02,25,7.70
2019,05,04,02,26,7.70
2019,05,04,02,27,7.70
2019,05,04,02,28,7.70
2019,05,04,02,29,7.60
2019,05,04,02,30,7.60
2019,05,04,02,31,7.60
2019,05,04,02,32,7.50
2019,05,04,02,33,7.50
2019,05,04,02,34,7.50
2019,05,04,02,35,7.50
2019,05,04,02,36,7.40
2019,05,04,02,37,7.40
2019,05,04,02,38,7.40
2019,05,04,02,39,7.40
2019,05,04,02,40,7.40
2019,05,04,02,41,7.40
2019,05,04,02,42,7.40
2019,05,04,02,43,7.40
2019,05,04,02,44,7.40
2019,05,04,02,45,7.40
2019,05,04,02,46,7.40
2019,05,04,02,47,7.40
2019,05,04,02,48,7.40
2019,05,04,02,49,7.40
2019,05,04,02,50,7.40
2019,05,04,02,51,7.40
2019,05,04,02,52,7.40
2019,05,04,02,53,7.30
2019,05,04,02,54,7.30
2019,05,04,02,55,7.30
2019,05,04,02,56,7.30
2019,05,04,02,57,7.30
2019,05,04,02,58,7.30
2019,05,04,02,59,7.30
2019,05,04,03,00,7.30
2019,05,04,03,01,7.30
2019,05,04,03,02,7.30
2019,05,04,03,03,7.30
2019,05,04,03,04,7.30
2019,05,04,03,05,7.30
2019,05,04,03,06,7.30
2019,05,04,03,07,7.30
2019,05,04,03,08,7.30
2019,05,04,03,09,7.30
2019,05,04,03,10,7.30
2019,05,04,03,11,7.20
2019,05,04,03,12,7.20
2019,05,04,03,13,7.20
2019,05,04,03,14,7.20
2019,05,04,03,15,7.20
2019,05,04,03,16,7.10
2019,05,04,03,17,7.10
2019,05,04,03,18,7.10
2019,05,04,03,19,7.10
2019,05,04,03,20,7.10
2019,05,04,03,21,7.00
2019,05,04,03,22,7.00
2019,05,04,03,23,6.90
2019,05,04,03,24,6.90
2019,05,04,03,25,6.90
2019,05,04,03,26,6.90
2019,05,04,03,27,6.80
2019,05,04,03,28,6.80
2019,05,04,03,29,6.80
2019,05,04,03,30,6.80
2019,05,04,03,31,6.80
2019,05,04,03,32,6.80
2019,05,04,03,33,6.80
2019,05,04,03,34,6.80
2019,05,04,03,35,6.80
2019,05,04,03,36,6.80
2019,05,04,03,37,6.80
2019,05,04,03,38,6.80
2019,05,04,03,39,6.80
2019,05,04,03,40,6.80
2019,05,04,03,41,6.70
2019,05,04,03,42,6.70
2019,05,04,03,43,6.70
2019,05,04,03,44,6.70
2019,05,04,03,45,6.70
2019,05,04,03,46,6.70
2019,05,04,03,47,6.80
2019,05,04,03,48,6.70
2019,05,04,03,49,6.70
2019,05,04,03,50,6.70
2019,05,04,03,51,6.70
2019,05,04,03,52,6.70
2019,05,04,03,53,6.70
2019,05,04,03,54,6.70
2019,05,04,03,55,6.70
2019,05,04,03,56,6.70
2019,05,04,03,57,6.70
2019,05,04,03,58,6.70
2019,05,04,03,59,6.70
2019,05,04,04,00,6.70
2019,05,04,04,01,6.70
2019,05,04,04,02,6.60
2019,05,04,04,03,6.60
2019,05,04,04,04,6.60
2019,05,04,04,05,6.60
2019,05,04,04,06,6.60
2019,05,04,04,07,6.50
2019,05,04,04,08,6.50
2019,05,04,04,09,6.40
2019,05,04,04,10,6.30
2019,05,04,04,11,6.30
2019,05,04,04,12,6.30
2019,05,04,04,13,6.30
2019,05,04,04,14,6.30
2019,05,04,04,15,6.30
2019,05,04,04,16,6.30
2019,05,04,04,17,6.30
2019,05,04,04,18,6.30
2019,05,04,04,19,6.20
2019,05,04,04,20,6.20
2019,05,04,04,21,6.20
2019,05,04,04,22,6.20
2019,05,04,04,23,6.20
2019,05,04,04,24,6.20
2019,05,04,04,25,6.20
2019,05,04,04,26,6.20
2019,05,04,04,27,6.20
2019,05,04,04,28,6.20
2019,05,04,04,29,6.10
2019,05,04,04,30,6.10
2019,05,04,04,31,6.10
2019,05,04,04,32,6.10
2019,05,04,04,33,6.10
2019,05,04,04,34,6.10
2019,05,04,04,35,6.10
2019,05,04,04,36,6.10
2019,05,04,04,37,6.10
2019,05,04,04,38,6.10
2019,05,04,04,39,6.10
2019,05,04,04,40,6.10
2019,05,04,04,41,6.10
2019,05,04,04,42,6.10
2019,05,04,04,43,6.10
2019,05,04,04,44,6.10
2019,05,04,04,45,6.10
2019,05,04,04,46,6.10
2019,05,04,04,47,6.10
2019,05,04,04,48,6.00
2019,05,04,04,49,6.00
2019,05,04,04,50,6.00
2019,05,04,04,51,6.00
2019,05,04,04,52,6.00
2019,05,04,04,53,6.00
2019,05,04,04,54,5.90
2019,05,04,04,55,5.90
2019,05,04,04,56,5.90
2019,05,04,04,57,5.90
2019,05,04,04,58,6.00
2019,05,04,04,59,6.00
2019,05,04,05,00,6.00
2019,05,04,05,01,6.10
2019,05,04,05,02,6.10
2019,05,04,05,03,6.10
2019,05,04,05,04,6.10
2019,05,04,05,05,6.10
2019,05,04,05,06,6.10
2019,05,04,05,07,6.10
2019,05,04,05,08,6.10
2019,05,04,05,09,6.10
2019,05,04,05,10,6.00
2019,05,04,05,11,6.00
2019,05,04,05,12,6.00
2019,05,04,05,13,5.90
2019,05,04,05,14,5.90
2019,05,04,05,15,5.90
2019,05,04,05,16,5.90
2019,05,04,05,17,5.80
2019,05,04,05,18,5.80
2019,05,04,05,19,5.80
2019,05,04,05,20,5.80
2019,05,04,05,21,5.80
2019,05,04,05,22,5.80
2019,05,04,05,23,5.80
2019,05,04,05,24,5.80
2019,05,04,05,25,5.80
2019,05,04,05,26,5.80
2019,05,04,05,27,5.80
2019,05,04,05,28,5.80
2019,05,04,05,29,5.80
2019,05,04,05,30,5.80
2019,05,04,05,31,5.80
2019,05,04,05,32,5.80
2019,05,04,05,33,5.80
2019,05,04,05,34,5.80
2019,05,04,05,35,5.80
2019,05,04,05,36,5.80
2019,05,04,05,37,5.80
2019,05,04,05,38,5.80
2019,05,04,05,39,5.80
2019,05,04,05,40,5.80
2019,05,04,05,41,5.80
2019,05,04,05,42,5.80
2019,05,04,05,43,5.80
2019,05,04,05,44,5.80
2019,05,04,05,45,5.80
2019,05,04,05,46,5.80
2019,05,04,05,47,5.80
2019,05,04,05,48,5.80
2019,05,04,05,49,5.80
2019,05,04,05,50,5.70
2019,05,04,05,51,5.70
2019,05,04,05,52,5.70
2019,05,04,05,53,5.70
2019,05,04,05,54,5.70
2019,05,04,05,55,5.80
2019,05,04,05,56,5.80
2019,05,04,05,57,5.80
2019,05,04,05,58,5.80
2019,05,04,05,59,5.70
2019,05,04,06,00,5.70
2019,05,04,06,01,5.70
2019,05,04,06,02,5.70
2019,05,04,06,03,5.70
2019,05,04,06,04,5.60
2019,05,04,06,05,5.60
2019,05,04,06,06,5.60
2019,05,04,06,07,5.60
2019,05,04,06,08,5.60
2019,05,04,06,09,5.60
2019,05,04,06,10,5.60
2019,05,04,06,11,5.60
2019,05,04,06,12,5.60
2019,05,04,06,13,5.60
2019,05,04,06,14,5.60
2019,05,04,06,15,5.60
2019,05,04,06,16,5.60
2019,05,04,06,17,5.50
2019,05,04,06,18,5.50
2019,05,04,06,19,5.40
2019,05,04,06,20,5.40
2019,05,04,06,21,5.40
2019,05,04,06,22,5.40
2019,05,04,06,23,5.50
2019,05,04,06,24,5.50
2019,05,04,06,25,5.50
2019,05,04,06,26,5.60
2019,05,04,06,27,5.60
2019,05,04,06,28,5.60
2019,05,04,06,29,5.70
2019,05,04,06,30,5.70
2019,05,04,06,31,5.70
2019,05,04,06,32,5.80
2019,05,04,06,33,5.80
2019,05,04,06,34,5.90
2019,05,04,06,35,5.90
2019,05,04,06,36,5.90
2019,05,04,06,37,6.00
2019,05,04,06,38,6.00
2019,05,04,06,39,6.10
2019,05,04,06,40,6.10
2019,05,04,06,41,6.10
2019,05,04,06,42,6.10
2019,05,04,06,43,6.10
2019,05,04,06,44,6.10
2019,05,04,06,45,6.10
2019,05,04,06,46,6.10
2019,05,04,06,47,6.10
2019,05,04,06,48,6.10
2019,05,04,06,49,6.10
2019,05,04,06,50,6.10
2019,05,04,06,51,6.10
2019,05,04,06,52,6.10
2019,05,04,06,53,6.20
2019,05,04,06,54,6.20
2019,05,04,06,55,6.30
2019,05,04,06,56,6.30
2019,05,04,06,57,6.30
2019,05,04,06,58,6.30
2019,05,04,06,59,6.30
2019,05,04,07,00,6.40
2019,05,04,07,01,6.40
2019,05,04,07,02,6.50
2019,05,04,07,03,6.50
2019,05,04,07,04,6.50
2019,05,04,07,05,6.60
2019,05,04,07,06,6.60
2019,05,04,07,07,6.60
2019,05,04,07,08,6.60
2019,05,04,07,09,6.70
2019,05,04,07,10,6.70
2019,05,04,07,11,6.70
2019,05,04,07,12,6.80
2019,05,04,07,13,6.80
2019,05,04,07,14,6.90
2019,05,04,07,15,6.90
2019,05,04,07,16,7.00
2019,05,04,07,17,7.10
2019,05,04,07,18,7.20
2019,05,04,07,19,7.20
2019,05,04,07,20,7.30
2019,05,04,07,21,7.40
2019,05,04,07,22,7.40
2019,05,04,07,23,7.50
2019,05,04,07,24,7.50
2019,05,04,07,25,7.60
2019,05,04,07,26,7.70
2019,05,04,07,27,7.70
2019,05,04,07,28,7.80
2019,05,04,07,29,7.80
2019,05,04,07,30,7.90
2019,05,04,07,31,7.90
2019,05,04,07,32,7.90
2019,05,04,07,33,8.00
2019,05,04,07,34,8.00
2019,05,04,07,35,8.10
2019,05,04,07,36,8.10
2019,05,04,07,37,8.10
2019,05,04,07,38,8.20
2019,05,04,07,39,8.20
2019,05,04,07,40,8.30
2019,05,04,07,41,8.40
2019,05,04,07,42,8.50
2019,05,04,07,43,8.50
2019,05,04,07,44,8.60
2019,05,04,07,45,8.70
2019,05,04,07,46,8.80
2019,05,04,07,47,8.90
2019,05,04,07,48,8.90
2019,05,04,07,49,9.10
2019,05,04,07,50,9.20
2019,05,04,07,51,9.30
2019,05,04,07,52,9.40
2019,05,04,07,53,9.40
2019,05,04,07,54,9.50
2019,05,04,07,55,9.60
2019,05,04,07,56,9.70
2019,05,04,07,57,9.80
2019,05,04,07,58,9.90
2019,05,04,07,59,10.00
2019,05,04,08,00,10.10
2019,05,04,08,01,10.10
2019,05,04,08,02,10.10
2019,05,04,08,03,10.20
2019,05,04,08,04,10.20
2019,05,04,08,05,10.20
2019,05,04,08,06,10.20
2019,05,04,08,07,10.30
2019,05,04,08,08,10.50
2019,05,04,08,09,10.60
2019,05,04,08,10,10.70
2019,05,04,08,11,10.80
2019,05,04,08,12,10.90
2019,05,04,08,13,11.00
2019,05,04,08,14,11.10
2019,05,04,08,15,11.20
2019,05,04,08,16,11.30
2019,05,04,08,17,11.30
2019,05,04,08,18,11.40
2019,05,04,08,19,11.50
2019,05,04,08,20,11.50
2019,05,04,08,21,11.60
2019,05,04,08,22,11.70
2019,05,04,08,23,11.80
2019,05,04,08,24,11.90
2019,05,04,08,25,12.00
2019,05,04,08,26,12.10
2019,05,04,08,27,12.10
2019,05,04,08,28,12.20
2019,05,04,08,29,12.30
2019,05,04,08,30,12.30
2019,05,04,08,31,12.40
2019,05,04,08,32,12.50
2019,05,04,08,33,12.60
2019,05,04,08,34,12.80
2019,05,04,08,35,12.80
2019,05,04,08,36,12.90
2019,05,04,08,37,13.00
2019,05,04,08,38,13.10
2019,05,04,08,39,13.10
2019,05,04,08,40,13.20
2019,05,04,08,41,13.20
2019,05,04,08,42,13.20
2019,05,04,08,43,13.30
2019,05,04,08,44,13.30
2019,05,04,08,45,13.40
2019,05,04,08,46,13.50
2019,05,04,08,47,13.50
2019,05,04,08,48,13.60
2019,05,04,08,49,13.70
2019,05,04,08,50,13.70
2019,05,04,08,51,13.70
2019,05,04,08,52,13.70
2019,05,04,08,53,13.80
2019,05,04,08,54,13.80
2019,05,04,08,55,13.80
2019,05,04,08,56,13.90
2019,05,04,08,57,14.00
2019,05,04,08,58,14.10
2019,05,04,08,59,14.20
2019,05,04,09,00,14.20
2019,05,04,09,01,14.30
2019,05,04,09,02,14.40
2019,05,04,09,03,14.40
2019,05,04,09,04,14.50
2019,05,04,09,05,14.50
2019,05,04,09,06,14.50
2019,05,04,09,07,14.50
2019,05,04,09,08,14.50
2019,05,04,09,09,14.50
2019,05,04,09,10,14.40
2019,05,04,09,11,14.40
2019,05,04,09,12,14.40
2019,05,04,09,13,14.30
2019,05,04,09,14,14.30
2019,05,04,09,15,14.20
2019,05,04,09,16,14.20
2019,05,04,09,17,14.20
2019,05,04,09,18,14.10
2019,05,04,09,19,14.00
2019,05,04,09,20,13.90
2019,05,04,09,21,13.70
2019,05,04,09,22,13.60
2019,05,04,09,23,13.50
2019,05,04,09,24,13.20
2019,05,04,09,25,13.10
2019,05,04,09,26,12.90
2019,05,04,09,27,12.70
2019,05,04,09,28,12.50
2019,05,04,09,29,12.40
2019,05,04,09,30,12.30
2019,05,04,09,31,12.30
2019,05,04,09,32,12.30
2019,05,04,09,33,12.40
2019,05,04,09,34,12.40
2019,05,04,09,35,12.50
2019,05,04,09,36,12.50
2019,05,04,09,37,12.50
2019,05,04,09,38,12.50
2019,05,04,09,39,12.50
2019,05,04,09,40,12.60
2019,05,04,09,41,12.70
2019,05,04,09,42,12.70
2019,05,04,09,43,12.70
2019,05,04,09,44,12.70
2019,05,04,09,45,12.70
2019,05,04,09,46,12.80
2019,05,04,09,47,12.80
2019,05,04,09,48,12.80
2019,05,04,09,49,12.90
2019,05,04,09,50,13.00
2019,05,04,09,51,13.10
2019,05,04,09,52,13.20
2019,05,04,09,53,13.20
2019,05,04,09,54,13.20
2019,05,04,09,55,13.30
2019,05,04,09,56,13.30
2019,05,04,09,57,13.30
2019,05,04,09,58,13.20
2019,05,04,09,59,13.10
2019,05,04,10,00,13.00
2019,05,04,10,01,13.00
2019,05,04,10,02,13.00
2019,05,04,10,03,13.00
2019,05,04,10,04,13.00
2019,05,04,10,05,13.10
2019,05,04,10,06,13.20
2019,05,04,10,07,13.40
2019,05,04,10,08,13.50
2019,05,04,10,09,13.50
2019,05,04,10,10,13.50
2019,05,04,10,11,13.50
2019,05,04,10,12,13.60
2019,05,04,10,13,13.60
2019,05,04,10,14,13.60
2019,05,04,10,15,13.70
2019,05,04,10,16,13.70
2019,05,04,10,17,13.50
2019,05,04,10,18,13.40
2019,05,04,10,19,13.30
2019,05,04,10,20,13.20
2019,05,04,10,21,13.20
2019,05,04,10,22,13.30
2019,05,04,10,23,13.30
2019,05,04,10,24,13.40
2019,05,04,10,25,13.40
2019,05,04,10,26,13.50
2019,05,04,10,27,13.60
2019,05,04,10,28,13.60
2019,05,04,10,29,13.60
2019,05,04,10,30,13.50
2019,05,04,10,31,13.40
2019,05,04,10,32,13.40
2019,05,04,10,33,13.40
2019,05,04,10,34,13.50
2019,05,04,10,35,13.50
2019,05,04,10,36,13.40
2019,05,04,10,37,13.40
2019,05,04,10,38,13.40
2019,05,04,10,39,13.40
2019,05,04,10,40,13.40
2019,05,04,10,41,13.50
2019,05,04,10,42,13.50
2019,05,04,10,43,13.50
2019,05,04,10,44,13.60
2019,05,04,10,45,13.60
2019,05,04,10,46,13.70
2019,05,04,10,47,13.70
2019,05,04,10,48,13.70
2019,05,04,10,49,13.70
2019,05,04,10,50,13.70
2019,05,04,10,51,13.80
2019,05,04,10,52,13.80
2019,05,04,10,53,13.70
2019,05,04,10,54,13.80
2019,05,04,10,55,13.80
2019,05,04,10,56,13.80
2019,05,04,10,57,13.80
2019,05,04,10,58,13.80
2019,05,04,10,59,13.80
2019,05,04,11,00,13.90
2019,05,04,11,01,14.00
2019,05,04,11,02,14.10
2019,05,04,11,03,14.20
2019,05,04,11,04,14.30
2019,05,04,11,05,14.30
2019,05,04,11,06,14.40
2019,05,04,11,07,14.50
2019,05,04,11,08,14.60
2019,05,04,11,09,14.70
2019,05,04,11,10,14.90
2019,05,04,11,11,15.00
2019,05,04,11,12,15.10
2019,05,04,11,13,15.20
2019,05,04,11,14,15.20
2019,05,04,11,15,15.10
2019,05,04,11,16,15.00
2019,05,04,11,17,14.90
2019,05,04,11,18,14.80
2019,05,04,11,19,14.70
2019,05,04,11,20,14.70
2019,05,04,11,21,14.70
2019,05,04,11,22,14.70
2019,05,04,11,23,14.70
2019,05,04,11,24,14.80
2019,05,04,11,25,14.80
2019,05,04,11,26,14.80
2019,05,04,11,27,14.90
2019,05,04,11,28,14.90
2019,05,04,11,29,14.90
2019,05,04,11,30,14.90
2019,05,04,11,31,14.80
2019,05,04,11,32,14.80
2019,05,04,11,33,14.70
2019,05,04,11,34,14.70
2019,05,04,11,35,14.70
2019,05,04,11,36,14.60
2019,05,04,11,37,14.70
2019,05,04,11,38,14.70
2019,05,04,11,39,14.80
2019,05,04,11,40,15.00
2019,05,04,11,41,15.10
2019,05,04,11,42,15.20
2019,05,04,11,43,15.10
2019,05,04,11,44,15.00
2019,05,04,11,45,14.90
2019,05,04,11,46,14.80
2019,05,04,11,47,14.70
2019,05,04,11,48,14.60
2019,05,04,11,49,14.50
2019,05,04,11,50,14.50
2019,05,04,11,51,14.50
2019,05,04,11,52,14.40
2019,05,04,11,53,14.30
2019,05,04,11,54,14.20
2019,05,04,11,55,14.20
2019,05,04,11,56,14.10
2019,05,04,11,57,14.10
2019,05,04,11,58,14.10
2019,05,04,11,59,14.10
2019,05,04,12,00,14.10
2019,05,04,12,01,14.20
2019,05,04,12,02,14.20
2019,05,04,12,03,14.10
2019,05,04,12,04,14.10
2019,05,04,12,05,14.10
2019,05,04,12,06,14.10
2019,05,04,12,07,14.10
2019,05,04,12,08,14.00
2019,05,04,12,09,14.00
2019,05,04,12,10,14.00
2019,05,04,12,11,13.90
2019,05,04,12,12,13.80
2019,05,04,12,13,13.80
2019,05,04,12,14,13.80
2019,05,04,12,15,13.80
2019,05,04,12,16,13.80
2019,05,04,12,17,13.80
2019,05,04,12,18,13.70
2019,05,04,12,19,13.70
2019,05,04,12,20,13.70
2019,05,04,12,21,13.70
2019,05,04,12,22,13.70
2019,05,04,12,23,13.70
2019,05,04,12,24,13.80
2019,05,04,12,25,13.80
2019,05,04,12,26,13.80
2019,05,04,12,27,13.80
2019,05,04,12,28,13.80
2019,05,04,12,29,13.80
2019,05,04,12,30,13.70
2019,05,04,12,31,13.70
2019,05,04,12,32,13.70
2019,05,04,12,33,13.70
2019,05,04,12,34,13.70
2019,05,04,12,35,13.70
2019,05,04,12,36,13.80
2019,05,04,12,37,13.90
2019,05,04,12,38,13.90
2019,05,04,12,39,13.90
2019,05,04,12,40,13.90
2019,05,04,12,41,13.90
2019,05,04,12,42,13.90
2019,05,04,12,43,13.90
2019,05,04,12,44,14.00
2019,05,04,12,45,14.10
2019,05,04,12,46,14.20
2019,05,04,12,47,14.30
2019,05,04,12,48,14.40
2019,05,04,12,49,14.60
2019,05,04,12,50,14.70
2019,05,04,12,51,14.80
2019,05,04,12,52,14.80
2019,05,04,12,53,14.80
2019,05,04,12,54,14.80
2019,05,04,12,55,14.90
2019,05,04,12,56,15.00
2019,05,04,12,57,15.00
2019,05,04,12,58,15.00
2019,05,04,12,59,15.00
2019,05,04,13,00,14.90
2019,05,04,13,01,14.90
2019,05,04,13,02,14.90
2019,05,04,13,03,14.90
2019,05,04,13,04,14.90
2019,05,04,13,05,15.00
2019,05,04,13,06,15.00
2019,05,04,13,07,15.00
2019,05,04,13,08,15.10
2019,05,04,13,09,15.10
2019,05,04,13,10,15.20
2019,05,04,13,11,15.20
2019,05,04,13,12,15.30
2019,05,04,13,13,15.30
2019,05,04,13,14,15.30
2019,05,04,13,15,15.20
2019,05,04,13,16,15.20
2019,05,04,13,17,15.00
2019,05,04,13,18,15.00
2019,05,04,13,19,14.90
2019,05,04,13,20,14.90
2019,05,04,13,21,14.80
2019,05,04,13,22,14.90
2019,05,04,13,23,15.00
2019,05,04,13,24,15.00
2019,05,04,13,25,15.10
2019,05,04,13,26,15.20
2019,05,04,13,27,15.30
2019,05,04,13,28,15.40
2019,05,04,13,29,15.50
2019,05,04,13,30,15.70
2019,05,04,13,31,15.90
2019,05,04,13,32,16.00
2019,05,04,13,33,16.10
2019,05,04,13,34,16.10
2019,05,04,13,35,16.20
2019,05,04,13,36,16.20
2019,05,04,13,37,16.20
2019,05,04,13,38,16.30
2019,05,04,13,39,16.10
2019,05,04,13,40,15.90
2019,05,04,13,41,15.70
2019,05,04,13,42,15.50
2019,05,04,13,43,15.40
2019,05,04,13,44,15.40
2019,05,04,13,45,15.50
2019,05,04,13,46,15.50
2019,05,04,13,47,15.50
2019,05,04,13,48,15.60
2019,05,04,13,49,15.60
2019,05,04,13,50,15.70
2019,05,04,13,51,15.70
2019,05,04,13,52,15.80
2019,05,04,13,53,15.80
2019,05,04,13,54,15.80
2019,05,04,13,55,15.90
2019,05,04,13,56,16.00
2019,05,04,13,57,16.10
2019,05,04,13,58,16.10
2019,05,04,13,59,16.20
2019,05,04,14,00,16.30
2019,05,04,14,01,16.40
2019,05,04,14,02,16.40
2019,05,04,14,03,16.50
2019,05,04,14,04,16.40
2019,05,04,14,05,16.40
2019,05,04,14,06,16.30
2019,05,04,14,07,16.30
2019,05,04,14,08,16.30
2019,05,04,14,09,16.30
2019,05,04,14,10,16.30
2019,05,04,14,11,16.30
2019,05,04,14,12,16.40
2019,05,04,14,13,16.40
2019,05,04,14,14,16.40
2019,05,04,14,15,16.40
2019,05,04,14,16,16.50
2019,05,04,14,17,16.50
2019,05,04,14,18,16.60
2019,05,04,14,19,16.60
2019,05,04,14,20,16.70
2019,05,04,14,21,16.80
2019,05,04,14,22,17.00
2019,05,04,14,23,17.20
2019,05,04,14,24,17.50
2019,05,04,14,25,17.70
2019,05,04,14,26,17.70
2019,05,04,14,27,17.80
2019,05,04,14,28,17.80
2019,05,04,14,29,17.90
2019,05,04,14,30,18.00
2019,05,04,14,31,18.00
2019,05,04,14,32,18.00
2019,05,04,14,33,18.00
2019,05,04,14,34,18.00
2019,05,04,14,35,17.90
2019,05,04,14,36,17.70
2019,05,04,14,37,17.70
2019,05,04,14,38,17.70
2019,05,04,14,39,17.70
2019,05,04,14,40,17.70
2019,05,04,14,41,17.70
2019,05,04,14,42,17.70
2019,05,04,14,43,17.60
2019,05,04,14,44,17.60
2019,05,04,14,45,17.60
2019,05,04,14,46,17.70
2019,05,04,14,47,17.70
2019,05,04,14,48,17.80
2019,05,04,14,49,17.80
2019,05,04,14,50,17.80
2019,05,04,14,51,17.90
2019,05,04,14,52,17.80
2019,05,04,14,53,17.70
2019,05,04,14,54,17.70
2019,05,04,14,55,17.70
2019,05,04,14,56,17.60
2019,05,04,14,57,17.50
2019,05,04,14,58,17.50
2019,05,04,14,59,17.50
2019,05,04,15,00,17.40
2019,05,04,15,01,17.40
2019,05,04,15,02,17.40
2019,05,04,15,03,17.30
2019,05,04,15,04,17.20
2019,05,04,15,05,17.20
2019,05,04,15,06,17.30
2019,05,04,15,07,17.30
2019,05,04,15,08,17.20
2019,05,04,15,09,17.00
2019,05,04,15,10,17.00
2019,05,04,15,11,17.00
2019,05,04,15,12,17.00
2019,05,04,15,13,17.10
2019,05,04,15,14,17.00
2019,05,04,15,15,16.90
2019,05,04,15,16,16.70
2019,05,04,15,17,16.40
2019,05,04,15,18,16.30
2019,05,04,15,19,16.30
2019,05,04,15,20,16.30
2019,05,04,15,21,16.30
2019,05,04,15,22,16.20
2019,05,04,15,23,16.20
2019,05,04,15,24,16.10
2019,05,04,15,25,15.90
2019,05,04,15,26,15.70
2019,05,04,15,27,15.60
2019,05,04,15,28,15.40
2019,05,04,15,29,15.30
2019,05,04,15,30,15.20
2019,05,04,15,31,15.20
2019,05,04,15,32,15.20
2019,05,04,15,33,15.10
2019,05,04,15,34,15.00
2019,05,04,15,35,14.90
2019,05,04,15,36,14.90
2019,05,04,15,37,14.90
2019,05,04,15,38,14.80
2019,05,04,15,39,14.80
2019,05,04,15,40,14.70
2019,05,04,15,41,14.60
2019,05,04,15,42,14.50
2019,05,04,15,43,14.50
2019,05,04,15,44,14.40
2019,05,04,15,45,14.40
2019,05,04,15,46,14.30
2019,05,04,15,47,14.20
2019,05,04,15,48,14.20
2019,05,04,15,49,14.10
2019,05,04,15,50,14.00
2019,05,04,15,51,14.00
2019,05,04,15,52,14.00
2019,05,04,15,53,14.00
2019,05,04,15,54,14.10
2019,05,04,15,55,14.20
2019,05,04,15,56,14.20
2019,05,04,15,57,14.30
2019,05,04,15,58,14.30
2019,05,04,15,59,14.30
2019,05,04,16,00,14.30
2019,05,04,16,01,14.30
2019,05,04,16,02,14.30
2019,05,04,16,03,14.20
2019,05,04,16,04,14.30
2019,05,04,16,05,14.20
2019,05,04,16,06,14.20
2019,05,04,16,07,14.10
2019,05,04,16,08,14.00
2019,05,04,16,09,13.90
2019,05,04,16,10,13.90
2019,05,04,16,11,13.90
2019,05,04,16,12,14.00
2019,05,04,16,13,14.00
2019,05,04,16,14,14.10
2019,05,04,16,15,14.10
2019,05,04,16,16,14.10
2019,05,04,16,17,14.10
2019,05,04,16,18,14.10
2019,05,04,16,19,14.10
2019,05,04,16,20,14.10
2019,05,04,16,21,14.10
2019,05,04,16,22,14.00
2019,05,04,16,23,14.00
2019,05,04,16,24,13.90
2019,05,04,16,25,13.90
2019,05,04,16,26,13.90
2019,05,04,16,27,13.90
2019,05,04,16,28,13.90
2019,05,04,16,29,13.80
2019,05,04,16,30,13.80
2019,05,04,16,31,13.80
2019,05,04,16,32,13.80
2019,05,04,16,33,13.80
2019,05,04,16,34,13.80
2019,05,04,16,35,13.80
2019,05,04,16,36,13.80
2019,05,04,16,37,13.90
2019,05,04,16,38,13.90
2019,05,04,16,39,13.90
2019,05,04,16,40,13.90
2019,05,04,16,41,13.80
2019,05,04,16,42,13.70
2019,05,04,16,43,13.70
2019,05,04,16,44,13.70
2019,05,04,16,45,13.60
2019,05,04,16,46,13.60
2019,05,04,16,47,13.60
2019,05,04,16,48,13.60
2019,05,04,16,49,13.60
2019,05,04,16,50,13.60
2019,05,04,16,51,13.60
2019,05,04,16,52,13.60
2019,05,04,16,53,13.60
2019,05,04,16,54,13.60
2019,05,04,16,55,13.60
2019,05,04,16,56,13.60
2019,05,04,16,57,13.60
2019,05,04,16,58,13.70
2019,05,04,16,59,13.70
2019,05,04,17,00,13.70
2019,05,04,17,01,13.70
2019,05,04,17,02,13.70
2019,05,04,17,03,13.70
2019,05,04,17,04,13.70
2019,05,04,17,05,13.70
2019,05,04,17,06,13.70
2019,05,04,17,07,13.80
2019,05,04,17,08,13.80
2019,05,04,17,09,13.80
2019,05,04,17,10,13.80
2019,05,04,17,11,13.80
2019,05,04,17,12,13.80
2019,05,04,17,13,13.80
2019,05,04,17,14,13.90
2019,05,04,17,15,13.90
2019,05,04,17,16,14.00
2019,05,04,17,17,14.00
2019,05,04,17,18,14.00
2019,05,04,17,19,14.10
2019,05,04,17,20,14.10
2019,05,04,17,21,14.20
2019,05,04,17,22,14.20
2019,05,04,17,23,14.20
2019,05,04,17,24,14.20
2019,05,04,17,25,14.30
2019,05,04,17,26,14.30
2019,05,04,17,27,14.30
2019,05,04,17,28,14.30
2019,05,04,17,29,14.30
2019,05,04,17,30,14.20
2019,05,04,17,31,14.20
2019,05,04,17,32,14.20
2019,05,04,17,33,14.20
2019,05,04,17,34,14.10
2019,05,04,17,35,14.10
2019,05,04,17,36,14.10
2019,05,04,17,37,14.10
2019,05,04,17,38,14.00
2019,05,04,17,39,13.90
2019,05,04,17,40,13.90